Location: ASU Dark Sky Observatory
(36.2504°N, 81.4125°W)
Time: 05:49:18
(UTC-04:00)

Amateur Radio Satellites - All Passes

Search period start: 26 April 2017 05:19
Search period end: 27 April 2017 05:19
Location: ASU Dark Sky Observatory, 36.2504°N, 81.4125°W

Satellite Date Start Highest point End Downlink Frequencies (MHz)
Time Altitude Azimuth
KKS-1 26 Apr 05:28:59 05:33:27 70° 258° (WSW) 05:37:55 437.445
ITAMSAT 1 26 Apr 05:53:26 05:57:33 25° 293° (WNW) 06:01:40 435.822/435.867
CUBESAT XI-V 26 Apr 06:00:20 06:04:33 35° 262° (W) 06:08:51 437.345
STARS 26 Apr 06:02:56 06:07:20 69° 259° (WSW) 06:11:45 437.465
SO-50 26 Apr 06:09:06 06:12:04 17° 109° (ESE) 06:14:59 436.795
XW-2D 26 Apr 06:51:29 06:54:30 22° 96° (E) 06:57:31 145.860 - 145.880
YUBILEINY 26 Apr 06:55:30 07:02:33 27° 289° (WNW) 07:09:38 435.215
CUTE-I 26 Apr 06:55:37 06:59:57 25° 96° (E) 07:04:14 437.470
AO-7 26 Apr 06:58:01 07:04:06 23° 303° (WNW) 07:10:12 .
XW-2B 26 Apr 06:58:14 07:01:27 26° 96° (E) 07:04:40 145.730 - 145.750
LilacSat-2 26 Apr 07:08:05 07:11:40 37° 98° (E) 07:15:15 437.200
KAITUO 1B 26 Apr 07:09:28 07:12:45 28° 97° (E) 07:16:02 145.475/437.950
XW-2C 26 Apr 07:09:50 07:13:23 37° 98° (E) 07:16:57 145.795 - 145.815
RS-15 26 Apr 07:14:11 07:25:07 44° 107° (ESE) 07:36:23 29.354- 29.394
M-CUBED/EXP-1 PRIME 26 Apr 07:20:31 07:24:45 38° 67° (ENE) 07:29:05 437.505
DOVE 4 26 Apr 07:32:22 07:36:57 70° 284° (WNW) 07:41:15 437.250
XW-2F 26 Apr 07:35:40 07:39:28 82° 100° (E) 07:43:18 145.980 - 146.000
SO-50 26 Apr 07:47:42 07:52:09 45° 304° (NW) 07:56:33 436.795
NUDT-PHONESAT 26 Apr 07:49:17 07:53:00 81° 285° (WNW) 07:56:44 437.300
STRAND 1 26 Apr 07:55:16 08:00:21 71° 75° (ENE) 08:05:26 437.568
SEEDS 26 Apr 08:00:15 08:01:18 11° 91° (E) 08:02:22 437.485
XW-2A 26 Apr 08:10:13 08:12:48 20° 96° (E) 08:15:23 145.665 - 145.685
XW-2D 26 Apr 08:25:40 08:28:34 21° 289° (WNW) 08:31:27 145.860 - 145.880
Tancredo 1 26 Apr 08:27:47 08:30:42 39° 134° (SE) 08:33:38 437.200
XW-2B 26 Apr 08:32:49 08:35:26 18° 290° (WNW) 08:38:04 145.730 - 145.750
CUTE-I 26 Apr 08:35:12 08:40:00 35° 290° (WNW) 08:44:47 437.470
CUBEBUG 2 26 Apr 08:35:38 08:38:44 20° 95° (E) 08:41:52 437.445
HO-68 26 Apr 08:43:15 08:50:21 59° 102° (ESE) 08:57:24 435.675
LilacSat-2 26 Apr 08:43:45 08:45:35 13° 292° (WNW) 08:47:24 437.200
ISS 26 Apr 08:44:03 08:47:11 46° 135° (SE) 08:50:20 437.550
KAITUO 1B 26 Apr 08:44:08 08:46:31 16° 291° (WNW) 08:48:54 145.475/437.950
XW-2C 26 Apr 08:45:28 08:47:13 13° 292° (WNW) 08:48:59 145.795 - 145.815
M-CUBED/EXP-1 PRIME 26 Apr 08:55:54 08:59:14 20° 262° (W) 09:02:37 437.505
AAUSAT CUBESAT 2 26 Apr 09:07:38 09:11:26 32° 97° (E) 09:15:11 437.432
CUTE 1.7 + AOD 2 26 Apr 09:11:53 09:16:07 60° 284° (WNW) 09:20:20 437.475
ZACube-1 26 Apr 09:20:29 09:23:50 22° 96° (E) 09:27:12 437.345
FO-29 26 Apr 09:24:07 09:26:36 13° 63° (ENE) 09:28:59 435.910
RS-15 26 Apr 09:25:35 09:37:18 55° 308° (NW) 09:49:25 29.354- 29.394
AO-73 26 Apr 09:27:37 09:31:05 24° 96° (E) 09:34:35 145.935
SEEDS 26 Apr 09:33:06 09:37:16 53° 285° (WNW) 09:41:23 437.485
STRAND 1 26 Apr 09:38:27 09:39:57 11° 269° (W) 09:41:28 437.568
XW-2A 26 Apr 09:43:12 09:45:23 16° 290° (WNW) 09:47:34 145.665 - 145.685
Oscar 11 26 Apr 09:43:43 09:47:37 31° 97° (E) 09:51:28 .
DELFI C3 26 Apr 09:59:05 10:00:17 11° 92° (E) 10:01:28 145.870
UWE-3 26 Apr 09:59:16 10:03:25 66° 284° (WNW) 10:07:39 435.000/436.395/437.385
PRISM 26 Apr 10:04:02 10:08:01 48° 74° (ENE) 10:12:02 437.425
Tancredo 1 26 Apr 10:04:26 10:06:43 19° 330° (NNW) 10:09:01 437.200
TIGRISAT 26 Apr 10:06:13 10:09:56 27° 71° (ENE) 10:13:36 435.000
CUBEBUG 2 26 Apr 10:11:47 10:15:20 27° 289° (WNW) 10:18:54 437.445
ISS 26 Apr 10:21:26 10:23:49 19° 331° (NNW) 10:26:12 437.550
UNISAT 6 26 Apr 10:26:38 10:30:54 52° 75° (ENE) 10:35:08 437.425
HO-68 26 Apr 10:31:57 10:37:32 25° 298° (WNW) 10:43:06 435.675
O/OREOS (USA 219) 26 Apr 10:37:58 10:42:13 39° 104° (ESE) 10:46:29 437.305
AAUSAT CUBESAT 2 26 Apr 10:43:47 10:46:36 18° 292° (WNW) 10:49:25 437.432
OBJECT BX 26 Apr 10:46:11 10:49:30 31° 98° (E) 10:52:47 145.990 - 145.960
ZACube-1 26 Apr 10:56:31 11:00:01 26° 289° (WNW) 11:03:35 437.345
AO-73 26 Apr 11:03:49 11:07:12 24° 289° (WNW) 11:10:37 145.935
FO-29 26 Apr 11:04:32 11:11:06 86° 256° (WSW) 11:16:54 435.910
AIST 2D 26 Apr 11:13:31 11:15:45 16° 70° (ENE) 11:17:59 435.315
NANOSAT C BR1 26 Apr 11:17:31 11:18:33 11° 65° (ENE) 11:19:36 145.865
Oscar 11 26 Apr 11:20:21 11:23:30 20° 291° (WNW) 11:26:39 .
DELFI C3 26 Apr 11:31:26 11:35:16 45° 286° (WNW) 11:39:04 145.870
PRISM 26 Apr 11:42:07 11:43:31 11° 268° (W) 11:44:56 437.425
EO-79 26 Apr 11:42:25 11:45:47 24° 70° (ENE) 11:49:11 145.935-145.965
TIGRISAT 26 Apr 11:43:07 11:46:33 22° 264° (W) 11:49:57 435.000
DUCHIFAT 1 26 Apr 11:45:16 11:48:25 21° 69° (ENE) 11:51:33 145.980
RS-15 26 Apr 11:45:20 11:53:37 20° 338° (NNW) 12:01:58 29.354- 29.394
LO-87 26 Apr 11:51:54 11:54:54 25° 97° (E) 11:57:51 145.935 - 145.965
PCSat 26 Apr 12:05:44 12:10:52 41° 58° (ENE) 12:15:58 145.827
UNISAT 6 26 Apr 12:06:19 12:07:51 12° 268° (W) 12:09:23 437.425
O/OREOS (USA 219) 26 Apr 12:18:33 12:21:46 19° 301° (WNW) 12:24:59 437.305
POLYITAN 1 26 Apr 12:20:35 12:24:46 69° 76° (ENE) 12:28:58 437.675
OBJECT BX 26 Apr 12:20:59 12:22:52 14° 292° (WNW) 12:24:45 145.990 - 145.960
QB50P2 26 Apr 12:27:07 12:31:21 89° 258° (WSW) 12:35:35 145.880/145.840
ESTCUBE 1 26 Apr 12:38:21 12:42:49 52° 100° (E) 12:47:13 437.505/2401.250
AIST 2D 26 Apr 12:45:59 12:48:46 22° 264° (W) 12:51:34 435.315
BUGSAT 1 26 Apr 12:48:11 12:51:56 34° 72° (ENE) 12:55:40 437.445
NANOSAT C BR1 26 Apr 12:49:37 12:53:45 57° 260° (W) 12:57:53 145.865
VELOX 1 26 Apr 12:54:20 12:57:34 20° 95° (E) 13:00:46 145.980
EO-79 26 Apr 13:18:00 13:21:26 24° 264° (W) 13:24:52 145.935-145.965
DUCHIFAT 1 26 Apr 13:20:18 13:23:53 27° 263° (W) 13:27:29 145.980
LO-87 26 Apr 13:25:55 13:28:06 16° 291° (WNW) 13:30:17 145.935 - 145.965
AO-85 26 Apr 13:27:35 13:31:58 78° 300° (WNW) 13:36:04 145.980
DX 1 26 Apr 13:47:04 13:50:49 28° 97° (E) 13:54:33 434.975-435.025
PCSat 26 Apr 13:49:43 13:53:58 24° 253° (WSW) 13:58:11 145.827
SPROUT 26 Apr 13:59:05 14:03:19 73° 283° (WNW) 14:07:31 437.525
50 SAT 26 Apr 14:01:21 14:04:50 76° 100° (E) 14:08:17 437.505
Gurwin Techsat 1B 26 Apr 14:02:19 14:07:19 43° 71° (ENE) 14:12:18 435.225
Oscar 19 26 Apr 14:03:29 14:08:37 77° 75° (ENE) 14:13:48 437.125/150
RS-15 26 Apr 14:05:48 14:13:17 17° 15° (NNE) 14:20:38 29.354- 29.394
AO-7 26 Apr 14:11:47 14:16:24 16° 52° (NE) 14:21:01 .
BEESAT 2 26 Apr 14:12:31 14:15:10 17° 110° (ESE) 14:17:51 435.950
BEESAT 3 26 Apr 14:13:07 14:16:55 53° 116° (ESE) 14:20:48 437.485
ESTCUBE 1 26 Apr 14:16:52 14:19:07 14° 295° (WNW) 14:21:21 437.505/2401.250
BUGSAT 1 26 Apr 14:24:45 14:27:21 16° 266° (W) 14:29:57 437.445
VELOX 1 26 Apr 14:30:07 14:34:02 32° 289° (WNW) 14:37:55 145.980
UKube-1 26 Apr 14:50:22 14:54:41 75° 284° (WNW) 14:58:59 .
Tancredo 1 26 Apr 14:55:48 14:58:02 18° 30° (NNE) 15:00:17 437.200
YUBILEINY 26 Apr 15:11:00 15:17:54 25° 70° (ENE) 15:24:46 435.215
ISS 26 Apr 15:14:17 15:16:53 21° 31° (NNE) 15:19:27 437.550
DX 1 26 Apr 15:23:28 15:26:49 22° 292° (WNW) 15:30:10 434.975-435.025
ITAMSAT 1 26 Apr 15:28:53 15:33:45 42° 71° (ENE) 15:38:38 435.822/435.867
BEESAT 26 Apr 15:36:06 15:39:58 24° 96° (E) 15:43:46 436.000
Gurwin Techsat 1B 26 Apr 15:43:28 15:47:23 21° 266° (W) 15:51:19 435.225
Oscar 19 26 Apr 15:47:47 15:48:26 10° 270° (W) 15:49:05 437.125/150
BEESAT 2 26 Apr 15:49:03 15:52:39 33° 306° (NW) 15:56:18 435.950
BEESAT 3 26 Apr 15:52:50 15:54:49 13° 313° (NW) 15:56:50 437.485
AO-7 26 Apr 15:59:36 16:07:53 80° 70° (ENE) 16:16:11 .
ITUPSAT 1 26 Apr 16:15:50 16:20:35 64° 102° (ESE) 16:25:19 437.325
RS-15 26 Apr 16:18:50 16:30:25 44° 47° (NE) 16:41:25 29.354- 29.394
SO-50 26 Apr 16:21:10 16:25:41 74° 60° (ENE) 16:30:09 436.795
Tancredo 1 26 Apr 16:31:08 16:34:06 42° 226° (SW) 16:37:02 437.200
ISS 26 Apr 16:50:24 16:53:25 36° 227° (SW) 16:56:26 437.550
YUBILEINY 26 Apr 17:06:38 17:15:16 64° 268° (W) 17:23:54 435.215
MOZHAYETS 4 26 Apr 17:08:32 17:13:07 68° 285° (WNW) 17:17:42
ITAMSAT 1 26 Apr 17:09:35 17:13:20 20° 265° (W) 17:17:07 435.822/435.867
BEESAT 26 Apr 17:13:31 17:17:41 30° 290° (WNW) 17:21:50 436.000
KKS-1 26 Apr 17:22:57 17:26:40 26° 96° (E) 17:30:22 437.445
LilacSat-2 26 Apr 17:49:00 17:50:49 13° 68° (ENE) 17:52:38 437.200
XW-2C 26 Apr 17:50:14 17:51:57 13° 68° (ENE) 17:53:41 145.795 - 145.815
STARS 26 Apr 17:55:20 17:58:56 25° 96° (E) 18:02:30 437.465
ITUPSAT 1 26 Apr 17:55:49 17:57:49 13° 297° (WNW) 17:59:49 437.325
AO-7 26 Apr 17:55:59 18:01:21 19° 267° (W) 18:06:44 .
CUBESAT XI-V 26 Apr 17:58:50 18:03:33 68° 101° (E) 18:08:14 437.345
XW-2F 26 Apr 18:14:22 18:17:26 25° 71° (ENE) 18:20:30 145.980 - 146.000
CUTE-I 26 Apr 18:14:45 18:19:27 33° 69° (ENE) 18:24:10 437.470
JUGNU 26 Apr 18:19:38 18:22:26 14° 172° (S) 18:25:15 437.505
NUDT-PHONESAT 26 Apr 18:26:15 18:29:24 28° 72° (ENE) 18:32:33 437.300
RS-15 26 Apr 18:31:32 18:43:12 56° 250° (WSW) 18:54:16 29.354- 29.394
DOVE 4 26 Apr 18:33:33 18:38:51 84° 78° (ENE) 18:44:07 437.250
KKS-1 26 Apr 18:59:31 19:03:06 24° 291° (WNW) 19:06:40 437.445
XW-2D 26 Apr 19:03:13 19:06:55 63° 259° (W) 19:10:38 145.860 - 145.880
HO-68 26 Apr 19:09:26 19:15:39 34° 64° (ENE) 19:21:53 435.675
XW-2B 26 Apr 19:10:13 19:13:52 52° 261° (W) 19:17:32 145.730 - 145.750
KAITUO 1B 26 Apr 19:20:10 19:23:44 48° 261° (W) 19:27:19 145.475/437.950
LilacSat-2 26 Apr 19:21:18 19:24:45 34° 262° (W) 19:28:13 437.200
XW-2C 26 Apr 19:22:22 19:25:48 35° 262° (W) 19:29:16 145.795 - 145.815
STARS 26 Apr 19:31:36 19:35:09 25° 291° (WNW) 19:38:41 437.465
CUBEBUG 2 26 Apr 19:32:23 19:34:29 13° 67° (ENE) 19:36:33 437.445
CUBESAT XI-V 26 Apr 19:38:48 19:40:17 11° 296° (WNW) 19:41:47 437.345
XW-2F 26 Apr 19:49:01 19:51:32 17° 266° (W) 19:54:03 145.980 - 146.000
CUTE-I 26 Apr 19:54:55 19:59:26 28° 264° (W) 20:03:59 437.470
AAUSAT CUBESAT 2 26 Apr 19:56:09 19:58:40 16° 68° (ENE) 20:01:11 437.432
NUDT-PHONESAT 26 Apr 20:01:13 20:03:20 15° 266° (W) 20:05:27 437.300
CUTE 1.7 + AOD 2 26 Apr 20:01:25 20:05:35 65° 75° (ENE) 20:09:46 437.475
NO-84 26 Apr 20:04:21 20:08:11 89° 131° (SE) 20:11:40 435.350 FM
JUGNU 26 Apr 20:07:14 20:10:38 16° 182° (S) 20:14:04 437.505
STRAND 1 26 Apr 20:08:49 20:13:14 29° 97° (E) 20:17:38 437.568
XW-2A 26 Apr 20:10:36 20:13:57 82° 259° (W) 20:17:19 145.665 - 145.685
ZACube-1 26 Apr 20:15:15 20:17:10 13° 67° (ENE) 20:19:04 437.345
SEEDS 26 Apr 20:21:33 20:25:42 72° 77° (ENE) 20:29:54 437.485
AO-73 26 Apr 20:21:53 20:24:03 14° 67° (ENE) 20:26:12 145.935
M-CUBED/EXP-1 PRIME 26 Apr 20:36:31 20:40:21 37° 102° (ESE) 20:43:52 437.505
Oscar 11 26 Apr 20:36:41 20:39:35 18° 68° (ENE) 20:42:29 .
O/OREOS (USA 219) 26 Apr 20:50:22 20:54:49 48° 66° (ENE) 20:59:12 437.305
UWE-3 26 Apr 20:53:15 20:57:31 68° 76° (ENE) 21:01:43 435.000/436.395/437.385
HO-68 26 Apr 20:56:27 21:03:08 43° 261° (W) 21:09:53 435.675
CUBEBUG 2 26 Apr 21:06:27 21:10:42 47° 260° (W) 21:14:50 437.445
SRMSAT 26 Apr 21:29:52 21:33:10 15° 175° (S) 21:36:29 437.500
AAUSAT CUBESAT 2 26 Apr 21:29:59 21:33:47 36° 262° (W) 21:37:38 437.432
NO-84 26 Apr 21:44:45 21:46:04 12° 328° (NNW) 21:47:21 435.350 FM
STRAND 1 26 Apr 21:47:59 21:52:18 29° 291° (WNW) 21:56:38 437.568
ZACube-1 26 Apr 21:49:00 21:53:02 45° 261° (W) 21:57:03 437.345
AO-73 26 Apr 21:55:56 21:59:55 41° 261° (W) 22:03:51 145.935
JUGNU 26 Apr 21:57:02 21:58:52 11° 192° (SSW) 22:00:41 437.505
AO-85 26 Apr 22:01:05 22:04:49 36° 56° (NE) 22:08:41 145.980
Oscar 11 26 Apr 22:11:32 22:15:25 34° 263° (W) 22:19:21 .
M-CUBED/EXP-1 PRIME 26 Apr 22:11:56 22:14:23 15° 300° (WNW) 22:16:44 437.505
DELFI C3 26 Apr 22:13:35 22:17:31 66° 76° (ENE) 22:21:30 145.870
UNISAT 6 26 Apr 22:22:29 22:24:23 13° 93° (E) 22:26:16 437.425
O/OREOS (USA 219) 26 Apr 22:31:32 22:33:43 13° 262° (W) 22:35:54 437.305
BEESAT 3 26 Apr 22:33:14 22:35:41 15° 48° (NE) 22:38:07 437.485
OBJECT BX 26 Apr 22:54:27 22:57:55 44° 261° (W) 23:01:25 145.990 - 145.960
SRMSAT 26 Apr 23:18:15 23:21:34 15° 185° (S) 23:24:52 437.500
PRISM 26 Apr 23:22:50 23:26:58 70° 284° (WNW) 23:31:03 437.425
ESTCUBE 1 26 Apr 23:35:16 23:39:19 34° 71° (ENE) 23:43:24 437.505/2401.250
TIGRISAT 26 Apr 23:35:44 23:40:02 89° 111° (ESE) 23:44:22 435.000
AO-85 26 Apr 23:42:22 23:44:55 16° 249° (WSW) 23:47:33 145.980
VELOX 1 26 Apr 23:50:03 23:52:17 14° 65° (ENE) 23:54:32 145.980
UNISAT 6 26 Apr 23:57:10 00:01:17 46° 286° (WNW) 00:05:26 437.425
LO-87 26 Apr 23:57:47 00:01:22 59° 259° (W) 00:04:59 145.935 - 145.965
FO-29 27 Apr 00:00:56 00:06:11 77° 285° (WNW) 00:11:48 435.910
BEESAT 2 27 Apr 00:08:35 00:12:36 59° 59° (ENE) 00:16:34 435.950
POLYITAN 1 27 Apr 00:09:36 00:11:39 13° 93° (E) 00:13:42 437.675
BEESAT 3 27 Apr 00:09:39 00:13:29 44° 245° (WSW) 00:17:16 437.485
AIST 2D 27 Apr 00:13:03 00:16:06 27° 97° (E) 00:19:10 435.315
QB50P2 27 Apr 00:15:32 00:18:22 17° 94° (E) 00:21:12 145.880/145.840
50 SAT 27 Apr 00:32:20 00:34:43 18° 70° (ENE) 00:37:08 437.505
NANOSAT C BR1 27 Apr 00:36:46 00:40:17 26° 96° (E) 00:43:46 145.865
DX 1 27 Apr 00:40:35 00:43:37 19° 67° (ENE) 00:46:39 434.975-435.025
SPROUT 27 Apr 00:49:22 00:53:33 58° 75° (ENE) 00:57:45 437.525
EO-79 27 Apr 01:04:09 01:08:19 63° 101° (E) 01:12:28 145.935-145.965
DUCHIFAT 1 27 Apr 01:06:02 01:10:06 52° 100° (E) 01:14:11 145.980
ESTCUBE 1 27 Apr 01:13:00 01:16:10 19° 266° (W) 01:19:22 437.505/2401.250
VELOX 1 27 Apr 01:23:56 01:28:15 50° 260° (W) 01:32:37 145.980
UKube-1 27 Apr 01:41:46 01:46:03 63° 74° (ENE) 01:50:20 .
POLYITAN 1 27 Apr 01:43:39 01:47:36 42° 287° (WNW) 01:51:33 437.675
AIST 2D 27 Apr 01:47:08 01:49:04 14° 291° (WNW) 01:50:58 435.315
QB50P2 27 Apr 01:50:27 01:54:12 32° 288° (WNW) 01:57:56 145.880/145.840
50 SAT 27 Apr 02:04:48 02:07:29 21° 264° (W) 02:10:13 437.505
BUGSAT 1 27 Apr 02:07:07 02:11:09 86° 107° (ESE) 02:15:09 437.445
NANOSAT C BR1 27 Apr 02:12:36 02:15:50 22° 291° (WNW) 02:19:03 145.865
DX 1 27 Apr 02:15:31 02:19:31 34° 262° (W) 02:23:32 434.975-435.025
Oscar 19 27 Apr 02:18:01 02:22:42 33° 97° (E) 02:27:21 437.125/150
Gurwin Techsat 1B 27 Apr 02:21:52 02:25:47 21° 94° (E) 02:29:42 435.225
BEESAT 27 Apr 02:40:17 02:43:51 21° 67° (ENE) 02:47:24 436.000
NO-84 27 Apr 02:41:51 02:43:24 13° 34° (NE) 02:44:55 435.350 FM
DUCHIFAT 1 27 Apr 02:43:55 02:45:18 11° 295° (WNW) 02:46:39 145.980
PCSat 27 Apr 02:44:18 02:49:38 65° 113° (ESE) 02:55:02 145.827
ITUPSAT 1 27 Apr 03:19:49 03:24:26 55° 73° (ENE) 03:29:05 437.325
ITAMSAT 1 27 Apr 03:45:16 03:48:45 18° 94° (E) 03:52:15 435.822/435.867
Oscar 19 27 Apr 03:57:34 04:01:50 26° 292° (WNW) 04:06:06 437.125/150
Gurwin Techsat 1B 27 Apr 04:00:52 04:05:52 43° 289° (WNW) 04:10:50 435.225
AO-7 27 Apr 04:04:50 04:11:58 31° 97° (E) 04:19:03 .
MOZHAYETS 4 27 Apr 04:07:23 04:11:56 83° 75° (ENE) 04:16:30
YUBILEINY 27 Apr 04:08:57 04:16:12 31° 84° (E) 04:23:27 435.215
BEESAT 27 Apr 04:17:03 04:21:22 35° 262° (W) 04:25:42 436.000
NO-84 27 Apr 04:18:22 04:21:03 37° 230° (SW) 04:23:41 435.350 FM
KKS-1 27 Apr 04:18:58 04:22:04 19° 67° (ENE) 04:25:10 437.445
PCSat 27 Apr 04:29:54 04:33:30 18° 311° (NW) 04:37:07 145.827
STARS 27 Apr 04:50:02 04:52:54 17° 67° (ENE) 04:55:45 437.465
CUBESAT XI-V 27 Apr 04:59:16 05:03:43 48° 73° (ENE) 05:08:13 437.345
ITUPSAT 1 27 Apr 05:00:21 05:02:33 13° 268° (W) 05:04:45 437.325
